21-06-2022, 00:00:02,     10,    0.0,   10.7,   0.00,   0.00, 1014.2,   76.9, -999.0
21-06-2022, 00:00:13,     10,    0.0,   10.7,   0.00,   0.00, 1014.2,   76.9, -999.0
21-06-2022, 00:00:23,     10,    0.0,   10.7,   0.00,   0.00, 1014.2,   77.1, -999.0
21-06-2022, 00:00:32,     10,    0.0,   10.6,   0.00,   0.00, 1014.2,   76.9, -999.0
21-06-2022, 00:00:43,     10,    0.0,   10.6,   0.00,   0.00, 1014.2,   76.8, -999.0
21-06-2022, 00:00:53,     10,    0.0,   10.7,   0.00,   0.00, 1014.2,   76.9, -999.0
21-06-2022, 00:01:02,     10,    0.0,   10.7,   0.00,   0.00, 1014.2,   77.0, -999.0
21-06-2022, 00:01:12,     10,    0.0,   10.7,   0.00,   0.00, 1014.2,   77.0, -999.0
21-06-2022, 00:01:22,     10,    0.0,   10.7,   0.00,   0.00, 1014.2,   77.1, -999.0
21-06-2022, 00:01:32,     10,    0.0,   10.6,   0.00,   0.00, 1014.2,   77.2, -999.0
21-06-2022, 00:01:42,     10,    0.0,   10.8,   0.00,   0.00, 1014.2,   77.3, -999.0
21-06-2022, 00:01:52,     10,    0.0,   10.7,   0.00,   0.00, 1014.3,   77.2, -999.0
21-06-2022, 00:02:02,     10,    0.0,   10.7,   0.00,   0.00, 1014.2,   77.1, -999.0
21-06-2022, 00:02:12,     10,    0.0,   10.7,   0.00,   0.00, 1014.3,   76.9, -999.0
21-06-2022, 00:02:22,      9,    0.0,   10.7,   0.00,   0.00, 1014.3,   77.0, -999.0
21-06-2022, 00:02:32,     10,    0.0,   10.7,   0.00,   0.00, 1014.3,   77.0, -999.0
21-06-2022, 00:02:42,     10,    0.0,   10.7,   0.00,   0.00, 1014.2,   77.0, -999.0
21-06-2022, 00:02:52,     10,    0.0,   10.7,   0.00,   0.00, 1014.2,   76.8, -999.0
21-06-2022, 00:03:02,     10,    0.0,   10.7,   0.00,   0.00, 1014.2,   76.9, -999.0
21-06-2022, 00:03:12,     10,    0.0,   10.7,   0.00,   0.00, 1014.2,   77.0, -999.0
21-06-2022, 00:03:22,      7,    0.0,   10.8,   0.00,   0.00, 1014.2,   77.1, -999.0
21-06-2022, 00:03:32,     10,    0.0,   10.9,   0.00,   0.00, 1014.2,   77.1, -999.0
21-06-2022, 00:03:41,     10,    0.0,   10.9,   0.00,   0.00, 1014.2,   77.2, -999.0
21-06-2022, 00:03:52,     10,    0.0,   10.9,   0.00,   0.00, 1014.2,   77.2, -999.0
21-06-2022, 00:04:02,     10,    0.0,   10.9,   0.00,   0.00, 1014.2,   77.3, -999.0
21-06-2022, 00:04:11,     10,    0.0,   10.9,   0.00,   0.00, 1014.3,   77.1, -999.0
21-06-2022, 00:04:21,     10,    0.0,   10.9,   0.00,   0.00, 1014.2,   76.9, -999.0
21-06-2022, 00:04:31,     10,    0.0,   10.8,   0.00,   0.00, 1014.3,   76.9, -999.0
21-06-2022, 00:04:41,     10,    0.0,   10.9,   0.00,   0.00, 1014.2,   76.8, -999.0
21-06-2022, 00:04:51,     10,    0.0,   10.9,   0.00,   0.00, 1014.2,   76.7, -999.0
21-06-2022, 00:05:01,     10,    0.0,   10.9,   0.00,   0.00, 1014.3,   76.7, -999.0
21-06-2022, 00:05:11,     10,    0.0,   10.9,   0.00,   0.00, 1014.2,   76.7, -999.0
21-06-2022, 00:05:21,     10,    0.0,   10.9,   0.00,   0.00, 1014.2,   76.5, -999.0
21-06-2022, 00:05:31,     10,    0.0,   10.9,   0.00,   0.00, 1014.3,   76.5, -999.0
21-06-2022, 00:05:41,     10,    0.0,   10.9,   0.00,   0.00, 1014.2,   76.4, -999.0
21-06-2022, 00:05:51,     10,    0.0,   10.9,   0.00,   0.00, 1014.3,   76.3, -999.0
21-06-2022, 00:06:01,     10,    0.0,   10.9,   0.00,   0.00, 1014.2,   76.4, -999.0
21-06-2022, 00:06:11,     10,    0.0,   10.9,   0.00,   0.00, 1014.2,   76.5, -999.0
21-06-2022, 00:06:21,     10,    0.0,   10.9,   0.00,   0.00, 1014.2,   76.2, -999.0
21-06-2022, 00:06:31,     10,    0.0,   10.8,   0.00,   0.00, 1014.3,   76.2, -999.0
21-06-2022, 00:06:40,     10,    0.0,   10.9,   0.00,   0.00, 1014.3,   76.2, -999.0
21-06-2022, 00:06:50,     10,    0.0,   10.9,   0.00,   0.00, 1014.2,   76.2, -999.0
21-06-2022, 00:07:01,     10,    0.0,   10.9,   0.00,   0.00, 1014.2,   76.4, -999.0
21-06-2022, 00:07:10,     10,    0.0,   10.9,   0.00,   0.00, 1014.2,   76.4, -999.0
21-06-2022, 00:07:20,     10,    0.0,   10.9,   0.00,   0.00, 1014.2,   76.2, -999.0
21-06-2022, 00:07:30,     10,    0.0,   10.9,   0.00,   0.00, 1014.2,   76.3, -999.0
21-06-2022, 00:07:40,     10,    0.0,   10.9,   0.00,   0.00, 1014.2,   76.3, -999.0
21-06-2022, 00:07:50,      9,    0.0,   10.9,   0.00,   0.00, 1014.2,   76.4, -999.0
21-06-2022, 00:08:00,     10,    0.0,   11.0,   0.00,   0.00, 1014.2,   76.3, -999.0
21-06-2022, 00:08:10,     10,    0.0,   11.0,   0.00,   0.00, 1014.2,   76.5, -999.0
21-06-2022, 00:08:20,     10,    0.0,   11.0,   0.00,   0.00, 1014.2,   76.4, -999.0
21-06-2022, 00:08:30,     10,    0.0,   11.0,   0.00,   0.00, 1014.2,   76.4, -999.0
21-06-2022, 00:08:40,     10,    0.0,   11.0,   0.00,   0.00, 1014.2,   76.4, -999.0
21-06-2022, 00:08:50,     10,    0.0,   11.2,   0.00,   0.00, 1014.2,   76.2, -999.0
21-06-2022, 00:09:00,     10,    0.0,   11.0,   0.00,   0.00, 1014.2,   76.2, -999.0
21-06-2022, 00:09:10,     10,    0.0,   11.0,   0.00,   0.00, 1014.2,   76.1, -999.0
21-06-2022, 00:09:20,     10,    0.0,   11.0,   0.00,   0.00, 1014.2,   75.9, -999.0
21-06-2022, 00:09:30,     10,    0.0,   10.9,   0.00,   0.00, 1014.2,   75.9, -999.0
21-06-2022, 00:09:40,     10,    0.0,   11.0,   0.00,   0.00, 1014.2,   75.9, -999.0
21-06-2022, 00:09:49,     10,    0.0,   11.0,   0.00,   0.00, 1014.2,   75.9, -999.0
21-06-2022, 00:09:59,     10,    0.0,   11.0,   0.00,   0.00, 1014.2,   76.0, -999.0
21-06-2022, 00:10:10,     10,    0.0,   10.9,   0.00,   0.00, 1014.2,   75.8, -999.0
21-06-2022, 00:10:19,     10,    0.0,   10.9,   0.00,   0.00, 1014.2,   75.7, -999.0
21-06-2022, 00:10:29,     10,    0.0,   10.9,   0.00,   0.00, 1014.2,   75.6, -999.0
21-06-2022, 00:10:40,     10,    0.0,   10.9,   0.00,   0.00, 1014.2,   75.6, -999.0
21-06-2022, 00:10:49,     10,    0.0,   10.9,   0.00,   0.00, 1014.2,   75.9, -999.0
21-06-2022, 00:10:59,     10,    0.0,   10.9,   0.00,   0.00, 1014.2,   75.9, -999.0
21-06-2022, 00:11:09,     10,    0.0,   10.8,   0.00,   0.00, 1014.1,   76.0, -999.0
21-06-2022, 00:11:19,     10,    0.0,   10.8,   0.00,   0.00, 1014.2,   76.0, -999.0
21-06-2022, 00:11:29,     10,    0.0,   10.9,   0.00,   0.00, 1014.1,   76.1, -999.0
21-06-2022, 00:11:39,     10,    0.0,   10.9,   0.00,   0.00, 1014.1,   75.9, -999.0
21-06-2022, 00:11:49,     10,    0.0,   10.9,   0.00,   0.00, 1014.2,   76.0, -999.0
21-06-2022, 00:11:59,     10,    0.0,   10.9,   0.00,   0.00, 1014.1,   76.0, -999.0
21-06-2022, 00:12:09,     10,    0.0,   10.9,   0.00,   0.00, 1014.2,   76.2, -999.0
21-06-2022, 00:12:19,     10,    0.0,   10.9,   0.00,   0.00, 1014.1,   76.2, -999.0
21-06-2022, 00:12:28,     10,    0.0,   10.9,   0.00,   0.00, 1014.2,   76.2, -999.0
21-06-2022, 00:12:39,     10,    0.0,   10.9,   0.00,   0.00, 1014.2,   76.2, -999.0
21-06-2022, 00:12:49,     10,    0.0,   10.9,   0.00,   0.00, 1014.2,   76.1, -999.0
21-06-2022, 00:12:58,     10,    0.0,   10.9,   0.00,   0.00, 1014.1,   76.0, -999.0
21-06-2022, 00:13:09,     10,    0.0,   10.9,   0.00,   0.00, 1014.1,   75.9, -999.0
21-06-2022, 00:13:19,     10,    0.0,   10.9,   0.00,   0.00, 1014.2,   75.9, -999.0
21-06-2022, 00:13:28,      9,    0.0,   10.9,   0.00,   0.00, 1014.2,   76.1, -999.0
21-06-2022, 00:13:38,     10,    0.0,   10.9,   0.00,   0.00, 1014.2,   76.2, -999.0
21-06-2022, 00:13:48,     10,    0.0,   10.9,   0.00,   0.00, 1014.1,   76.3, -999.0
21-06-2022, 00:13:58,     10,    0.0,   10.9,   0.00,   0.00, 1014.2,   76.0, -999.0
21-06-2022, 00:14:08,     10,    0.0,   10.9,   0.00,   0.00, 1014.2,   76.1, -999.0
21-06-2022, 00:14:18,     10,    0.0,   10.9,   0.00,   0.00, 1014.1,   76.2, -999.0
21-06-2022, 00:14:28,     10,    0.0,   10.9,   0.00,   0.00, 1014.2,   76.3, -999.0
21-06-2022, 00:14:38,     10,    0.0,   10.9,   0.00,   0.00, 1014.2,   76.1, -999.0
21-06-2022, 00:14:48,     10,    0.0,   10.9,   0.00,   0.00, 1014.2,   76.1, -999.0
21-06-2022, 00:14:58,     10,    0.0,   11.0,   0.00,   0.00, 1014.2,   76.0, -999.0
21-06-2022, 00:15:08,     10,    0.0,   10.9,   0.00,   0.00, 1014.2,   76.1, -999.0
21-06-2022, 00:15:18,     10,    0.0,   10.9,   0.00,   0.00, 1014.2,   76.0, -999.0
21-06-2022, 00:15:28,     10,    0.0,   10.9,   0.00,   0.00, 1014.2,   76.1, -999.0
21-06-2022, 00:15:38,     10,    0.0,   10.9,   0.00,   0.00, 1014.2,   76.0, -999.0
21-06-2022, 00:15:48,     10,    0.0,   10.9,   0.00,   0.00, 1014.2,   76.0, -999.0
21-06-2022, 00:15:58,     10,    0.0,   10.9,   0.00,   0.00, 1014.2,   75.9, -999.0
21-06-2022, 00:16:07,     10,    0.0,   10.9,   0.00,   0.00, 1014.1,   75.7, -999.0
21-06-2022, 00:16:18,     10,    0.0,   10.9,   0.00,   0.00, 1014.1,   75.8, -999.0
21-06-2022, 00:16:27,     10,    0.0,   10.9,   0.00,   0.00, 1014.1,   76.0, -999.0
21-06-2022, 00:16:37,     10,    0.0,   10.9,   0.00,   0.00, 1014.1,   76.1, -999.0
21-06-2022, 00:16:47,     10,    0.0,   10.9,   0.00,   0.00, 1014.2,   76.0, -999.0
21-06-2022, 00:16:57,     10,    0.0,   10.9,   0.00,   0.00, 1014.2,   76.2, -999.0
21-06-2022, 00:17:07,     10,    0.0,   11.0,   0.00,   0.00, 1014.2,   76.1, -999.0
21-06-2022, 00:17:17,     10,    0.0,   11.0,   0.00,   0.00, 1014.2,   76.2, -999.0
21-06-2022, 00:17:27,     10,    0.0,   10.9,   0.00,   0.00, 1014.2,   76.0, -999.0
21-06-2022, 00:17:37,     10,    0.0,   10.9,   0.00,   0.00, 1014.2,   76.0, -999.0
21-06-2022, 00:17:47,     10,    0.0,   11.0,   0.00,   0.00, 1014.2,   76.1, -999.0
21-06-2022, 00:17:57,     10,    0.0,   11.0,   0.00,   0.00, 1014.2,   76.0, -999.0
21-06-2022, 00:18:07,     10,    0.0,   11.0,   0.00,   0.00, 1014.2,   76.2, -999.0
21-06-2022, 00:18:17,     10,    0.0,   11.0,   0.00,   0.00, 1014.2,   76.3, -999.0
21-06-2022, 00:18:27,     10,    0.0,   11.0,   0.00,   0.00, 1014.2,   76.2, -999.0
21-06-2022, 00:18:37,     10,    0.0,   11.0,   0.00,   0.00, 1014.2,   76.3, -999.0
21-06-2022, 00:18:47,     10,    0.0,   11.0,   0.00,   0.00, 1014.2,   76.1, -999.0
21-06-2022, 00:18:57,     10,    0.0,   11.1,   0.00,   0.00, 1014.2,   76.2, -999.0
21-06-2022, 00:19:06,     10,    0.0,   11.1,   0.00,   0.00, 1014.2,   76.1, -999.0
21-06-2022, 00:19:16,     10,    0.0,   11.1,   0.00,   0.00, 1014.2,   76.1, -999.0
21-06-2022, 00:19:27,     10,    0.0,   11.0,   0.00,   0.00, 1014.2,   76.1, -999.0
21-06-2022, 00:19:36,     10,    0.0,   11.1,   0.00,   0.00, 1014.2,   76.0, -999.0
21-06-2022, 00:19:46,     10,    0.0,   11.1,   0.00,   0.00, 1014.2,   76.0, -999.0
21-06-2022, 00:19:56,      8,    0.0,   11.2,   0.00,   0.00, 1014.2,   76.0, -999.0
21-06-2022, 00:20:06,     10,    0.0,   11.1,   0.00,   0.00, 1014.2,   76.0, -999.0
21-06-2022, 00:20:16,     10,    0.0,   11.2,   0.00,   0.00, 1014.2,   76.1, -999.0
21-06-2022, 00:20:26,     10,    0.0,   11.2,   0.00,   0.00, 1014.2,   76.0, -999.0
21-06-2022, 00:20:36,     10,    0.0,   11.2,   0.00,   0.00, 1014.2,   76.0, -999.0
21-06-2022, 00:20:46,     10,    0.0,   11.2,   0.00,   0.00, 1014.2,   76.0, -999.0
21-06-2022, 00:20:56,     10,    0.0,   11.2,   0.00,   0.00, 1014.2,   75.8, -999.0
21-06-2022, 00:21:06,     10,    0.0,   11.2,   0.00,   0.00, 1014.2,   75.8, -999.0
21-06-2022, 00:21:16,     10,    0.0,   11.2,   0.00,   0.00, 1014.2,   75.8, -999.0
21-06-2022, 00:21:26,     10,    0.0,   11.2,   0.00,   0.00, 1014.2,   75.7, -999.0
21-06-2022, 00:21:36,     10,    0.0,   11.2,   0.00,   0.00, 1014.2,   75.8, -999.0
21-06-2022, 00:21:45,     10,    0.0,   11.2,   0.00,   0.00, 1014.2,   75.7, -999.0
21-06-2022, 00:21:56,     10,    0.0,   11.2,   0.00,   0.00, 1014.2,   75.6, -999.0
21-06-2022, 00:22:06,     10,    0.0,   11.2,   0.00,   0.00, 1014.2,   75.4, -999.0
21-06-2022, 00:22:15,     10,    0.0,   11.2,   0.00,   0.00, 1014.2,   75.3, -999.0
21-06-2022, 00:22:26,     10,    0.0,   11.2,   0.00,   0.00, 1014.2,   75.4, -999.0
21-06-2022, 00:22:36,     10,    0.0,   11.2,   0.00,   0.00, 1014.2,   75.3, -999.0
21-06-2022, 00:22:45,     10,    0.0,   11.1,   0.00,   0.00, 1014.2,   75.4, -999.0
21-06-2022, 00:22:55,     10,    0.0,   11.1,   0.00,   0.00, 1014.2,   75.4, -999.0
21-06-2022, 00:23:05,     10,    0.0,   11.2,   0.00,   0.00, 1014.2,   75.4, -999.0
21-06-2022, 00:23:15,     10,    0.0,   11.2,   0.00,   0.00, 1014.2,   75.4, -999.0
21-06-2022, 00:23:25,     10,    0.0,   11.2,   0.00,   0.00, 1014.2,   75.5, -999.0
21-06-2022, 00:23:35,     10,    0.0,   11.2,   0.00,   0.00, 1014.2,   75.7, -999.0
21-06-2022, 00:23:45,     10,    0.0,   11.2,   0.00,   0.00, 1014.2,   75.6, -999.0
21-06-2022, 00:23:55,     10,    0.0,   11.3,   0.00,   0.00, 1014.2,   75.6, -999.0
21-06-2022, 00:24:05,     10,    0.0,   11.3,   0.00,   0.00, 1014.2,   75.6, -999.0
21-06-2022, 00:24:15,     10,    0.0,   11.3,   0.00,   0.00, 1014.2,   75.5, -999.0
21-06-2022, 00:24:25,     10,    0.0,   11.3,   0.00,   0.00, 1014.2,   75.5, -999.0
21-06-2022, 00:24:35,     10,    0.0,   11.3,   0.00,   0.00, 1014.2,   75.3, -999.0
21-06-2022, 00:24:45,     10,    0.0,   11.2,   0.00,   0.00, 1014.2,   75.4, -999.0
21-06-2022, 00:24:55,     10,    0.0,   11.3,   0.00,   0.00, 1014.2,   75.4, -999.0
21-06-2022, 00:25:05,     10,    0.0,   11.1,   0.00,   0.00, 1014.2,   75.3, -999.0
21-06-2022, 00:25:15,     10,    0.0,   11.2,   0.00,   0.00, 1014.2,   75.4, -999.0
21-06-2022, 00:25:24,     10,    0.0,   11.2,   0.00,   0.00, 1014.1,   75.4, -999.0
21-06-2022, 00:25:35,     10,    0.0,   11.1,   0.00,   0.00, 1014.2,   75.2, -999.0
21-06-2022, 00:25:44,     10,    0.0,   11.2,   0.00,   0.00, 1014.2,   75.3, -999.0
21-06-2022, 00:25:54,     10,    0.0,   11.1,   0.00,   0.00, 1014.2,   75.3, -999.0
21-06-2022, 00:26:04,     10,    0.0,   11.1,   0.00,   0.00, 1014.2,   75.3, -999.0
21-06-2022, 00:26:14,     10,    0.0,   11.1,   0.00,   0.00, 1014.2,   75.3, -999.0
21-06-2022, 00:26:24,     10,    0.0,   11.2,   0.00,   0.00, 1014.2,   75.4, -999.0
21-06-2022, 00:26:34,     10,    0.0,   11.1,   0.00,   0.00, 1014.1,   75.5, -999.0
21-06-2022, 00:26:44,     10,    0.0,   11.1,   0.00,   0.00, 1014.1,   75.5, -999.0
21-06-2022, 00:26:54,     10,    0.0,   11.1,   0.00,   0.00, 1014.1,   75.6, -999.0
21-06-2022, 00:27:04,     10,    0.0,   11.1,   0.00,   0.00, 1014.1,   75.5, -999.0
21-06-2022, 00:27:14,      9,    0.0,   11.1,   0.00,   0.00, 1014.1,   75.4, -999.0
21-06-2022, 00:27:24,     10,    0.0,   11.1,   0.00,   0.00, 1014.1,   75.6, -999.0
21-06-2022, 00:27:34,     10,    0.0,   11.2,   0.00,   0.00, 1014.1,   75.5, -999.0
21-06-2022, 00:27:44,     10,    0.0,   11.1,   0.00,   0.00, 1014.1,   75.4, -999.0
21-06-2022, 00:27:54,     10,    0.0,   11.2,   0.00,   0.00, 1014.1,   75.4, -999.0
21-06-2022, 00:28:04,     10,    0.0,   11.2,   0.00,   0.00, 1014.1,   75.3, -999.0
21-06-2022, 00:28:14,     14,    0.0,   11.2,   0.00,   0.00, 1014.1,   75.3, -999.0
21-06-2022, 00:28:23,     15,    0.0,   11.2,   0.00,   0.00, 1014.1,   75.2, -999.0
21-06-2022, 00:28:33,    182,    0.0,   11.2,   0.00,   0.00, 1014.1,   75.2, -999.0
21-06-2022, 00:28:44,    182,    0.0,   11.3,   0.00,   0.00, 1014.1,   75.1, -999.0
21-06-2022, 00:28:53,    182,    0.0,   11.2,   0.00,   0.00, 1014.1,   74.9, -999.0
21-06-2022, 00:29:03,    182,    0.0,   11.2,   0.00,   0.00, 1014.1,   74.8, -999.0
21-06-2022, 00:29:13,    182,    0.0,   11.2,   0.00,   0.00, 1014.1,   74.8, -999.0
21-06-2022, 00:29:23,    182,    0.0,   11.2,   0.00,   0.00, 1014.1,   74.8, -999.0
21-06-2022, 00:29:33,    182,    0.0,   11.2,   0.00,   0.00, 1014.1,   74.8, -999.0
21-06-2022, 00:29:43,    182,    0.0,   11.2,   0.00,   0.00, 1014.1,   74.8, -999.0
21-06-2022, 00:29:53,    182,    0.0,   11.2,   0.00,   0.00, 1014.1,   74.7, -999.0
21-06-2022, 00:30:03,    182,    0.0,   11.2,   0.00,   0.00, 1014.1,   74.8, -999.0
21-06-2022, 00:30:13,    182,    0.0,   11.2,   0.00,   0.00, 1014.1,   74.7, -999.0
21-06-2022, 00:30:23,    182,    0.0,   11.3,   0.00,   0.00, 1014.1,   74.9, -999.0
21-06-2022, 00:30:33,    182,    0.0,   11.3,   0.00,   0.00, 1014.1,   74.8, -999.0
21-06-2022, 00:30:43,    182,    0.0,   11.3,   0.00,   0.00, 1014.1,   74.7, -999.0
21-06-2022, 00:30:53,    182,    0.0,   11.4,   0.00,   0.00, 1014.1,   74.7, -999.0
21-06-2022, 00:31:02,    182,    0.0,   11.3,   0.00,   0.00, 1014.1,   74.7, -999.0
21-06-2022, 00:31:13,    182,    0.0,   11.2,   0.00,   0.00, 1014.1,   74.7, -999.0
21-06-2022, 00:31:23,    182,    0.0,   11.3,   0.00,   0.00, 1014.1,   74.7, -999.0
21-06-2022, 00:31:32,    182,    0.0,   11.3,   0.00,   0.00, 1014.1,   74.5, -999.0
21-06-2022, 00:31:42,    182,    0.0,   11.3,   0.00,   0.00, 1014.1,   74.7, -999.0
21-06-2022, 00:31:53,    182,    0.0,   11.4,   0.00,   0.00, 1014.1,   74.7, -999.0
21-06-2022, 00:32:02,    182,    0.0,   11.3,   0.00,   0.00, 1014.1,   74.5, -999.0
21-06-2022, 00:32:12,    182,    0.0,   11.3,   0.00,   0.00, 1014.1,   74.4, -999.0
21-06-2022, 00:32:22,    182,    0.0,   11.3,   0.00,   0.00, 1014.1,   74.4, -999.0
21-06-2022, 00:32:32,    182,    0.0,   11.4,   0.00,   0.00, 1014.1,   74.4, -999.0
21-06-2022, 00:32:42,    182,    0.0,   11.3,   0.00,   0.00, 1014.0,   74.3, -999.0
21-06-2022, 00:32:52,    182,    0.0,   11.3,   0.00,   0.00, 1014.1,   74.3, -999.0
21-06-2022, 00:33:02,    182,    0.0,   11.3,   0.00,   0.00, 1014.1,   74.2, -999.0
21-06-2022, 00:33:12,    182,    0.0,   11.3,   0.00,   0.00, 1014.1,   74.3, -999.0
21-06-2022, 00:33:22,    182,    0.0,   11.3,   0.00,   0.00, 1014.1,   74.2, -999.0
21-06-2022, 00:33:32,    182,    0.0,   11.2,   0.00,   0.00, 1014.1,   74.3, -999.0
21-06-2022, 00:33:42,    182,    0.0,   11.3,   0.00,   0.00, 1014.0,   74.2, -999.0
21-06-2022, 00:33:52,    182,    0.0,   11.3,   0.00,   0.00, 1014.1,   74.1, -999.0
21-06-2022, 00:34:02,    182,    0.0,   11.3,   0.00,   0.00, 1014.1,   74.2, -999.0
21-06-2022, 00:34:11,    182,    0.0,   11.2,   0.00,   0.00, 1014.1,   74.1, -999.0
21-06-2022, 00:34:22,    182,    0.0,   11.2,   0.00,   0.00, 1014.1,   74.0, -999.0
21-06-2022, 00:34:32,    182,    0.0,   11.2,   0.00,   0.00, 1014.1,   73.8, -999.0
21-06-2022, 00:34:41,    182,    0.0,   11.1,   0.00,   0.00, 1014.0,   73.7, -999.0
21-06-2022, 00:34:51,    182,    0.0,   11.1,   0.00,   0.00, 1014.1,   73.6, -999.0
21-06-2022, 00:35:02,    182,    0.0,   11.2,   0.00,   0.00, 1014.1,   73.6, -999.0
21-06-2022, 00:35:11,    182,    0.0,   11.2,   0.00,   0.00, 1014.0,   73.7, -999.0
21-06-2022, 00:35:21,    182,    0.0,   11.3,   0.00,   0.00, 1014.1,   73.6, -999.0
21-06-2022, 00:35:31,    182,    0.0,   11.3,   0.00,   0.00, 1014.1,   73.7, -999.0
21-06-2022, 00:35:41,    182,    0.0,   11.4,   0.00,   0.00, 1014.1,   73.7, -999.0
21-06-2022, 00:35:51,    182,    0.0,   11.4,   0.00,   0.00, 1014.1,   73.7, -999.0
21-06-2022, 00:36:01,    182,    0.0,   11.4,   0.00,   0.00, 1014.0,   73.6, -999.0
21-06-2022, 00:36:11,    182,    0.0,   11.4,   0.00,   0.00, 1014.1,   73.4, -999.0
21-06-2022, 00:36:21,    182,    0.0,   11.3,   0.00,   0.00, 1014.1,   73.2, -999.0
21-06-2022, 00:36:31,    182,    0.0,   11.3,   0.00,   0.00, 1014.1,   73.1, -999.0
21-06-2022, 00:36:41,    182,    0.0,   11.4,   0.00,   0.00, 1014.1,   73.2, -999.0
21-06-2022, 00:36:51,    182,    0.0,   11.4,   0.00,   0.00, 1014.1,   73.1, -999.0
21-06-2022, 00:37:01,    182,    0.0,   11.4,   0.00,   0.00, 1014.1,   73.2, -999.0
21-06-2022, 00:37:11,    182,    0.0,   11.4,   0.00,   0.00, 1014.1,   73.1, -999.0
21-06-2022, 00:37:21,    182,    0.0,   11.3,   0.00,   0.00, 1014.1,   73.1, -999.0
21-06-2022, 00:37:31,    182,    0.0,   11.3,   0.00,   0.00, 1014.1,   72.9, -999.0
21-06-2022, 00:37:41,    181,    0.0,   11.3,   0.00,   0.00, 1014.1,   72.9, -999.0
21-06-2022, 00:37:50,    182,    0.0,   11.4,   0.00,   0.00, 1014.1,   72.8, -999.0
21-06-2022, 00:38:01,    182,    0.0,   11.3,   0.00,   0.00, 1014.1,   72.8, -999.0
21-06-2022, 00:38:10,    182,    0.0,   11.4,   0.00,   0.00, 1014.1,   72.9, -999.0
21-06-2022, 00:38:20,    182,    0.0,   11.4,   0.00,   0.00, 1014.1,   73.0, -999.0
21-06-2022, 00:38:30,    182,    0.0,   11.4,   0.00,   0.00, 1014.1,   73.0, -999.0
21-06-2022, 00:38:40,    182,    0.0,   11.4,   0.00,   0.00, 1014.1,   73.0, -999.0
21-06-2022, 00:38:50,    182,    0.0,   11.4,   0.00,   0.00, 1014.1,   73.0, -999.0
21-06-2022, 00:39:00,    182,    0.0,   11.4,   0.00,   0.00, 1014.1,   72.9, -999.0
21-06-2022, 00:39:10,    182,    0.0,   11.4,   0.00,   0.00, 1014.1,   72.9, -999.0
21-06-2022, 00:39:20,    182,    0.0,   11.5,   0.00,   0.00, 1014.1,   72.7, -999.0
21-06-2022, 00:39:30,    182,    0.0,   11.5,   0.00,   0.00, 1014.1,   72.7, -999.0
21-06-2022, 00:39:40,    182,    0.0,   11.4,   0.00,   0.00, 1014.1,   72.9, -999.0
21-06-2022, 00:39:50,    182,    0.0,   11.4,   0.00,   0.00, 1014.1,   72.7, -999.0
21-06-2022, 00:40:00,    182,    0.0,   11.4,   0.00,   0.00, 1014.1,   72.7, -999.0
21-06-2022, 00:40:10,    182,    0.0,   11.5,   0.00,   0.00, 1014.1,   72.7, -999.0
21-06-2022, 00:40:19,    182,    0.0,   11.4,   0.00,   0.00, 1014.1,   72.5, -999.0
21-06-2022, 00:40:30,    182,    0.0,   11.4,   0.00,   0.00, 1014.1,   72.6, -999.0
21-06-2022, 00:40:40,    182,    0.0,   11.5,   0.00,   0.00, 1014.1,   72.5, -999.0
21-06-2022, 00:40:49,    184,    0.0,   11.4,   0.00,   0.00, 1014.1,   72.4, -999.0
21-06-2022, 00:40:59,    182,    0.0,   11.4,   0.00,   0.00, 1014.1,   72.4, -999.0
21-06-2022, 00:41:10,    182,    0.0,   11.5,   0.00,   0.00, 1014.1,   72.3, -999.0
21-06-2022, 00:41:19,    182,    0.0,   11.5,   0.00,   0.00, 1014.1,   72.2, -999.0
21-06-2022, 00:41:29,    182,    0.0,   11.5,   0.00,   0.00, 1014.1,   72.1, -999.0
21-06-2022, 00:41:39,    182,    0.0,   11.5,   0.00,   0.00, 1014.1,   72.1, -999.0
21-06-2022, 00:41:49,    182,    0.0,   11.5,   0.00,   0.00, 1014.1,   71.9, -999.0
21-06-2022, 00:42:00,    182,    0.0,   11.5,   0.00,   0.00, 1014.1,   72.0, -999.0
21-06-2022, 00:42:09,    182,    0.0,   11.5,   0.00,   0.00, 1014.1,   71.8, -999.0
21-06-2022, 00:42:19,    182,    0.0,   11.4,   0.00,   0.00, 1014.1,   71.9, -999.0
21-06-2022, 00:42:29,    182,    0.0,   11.4,   0.00,   0.00, 1014.1,   71.9, -999.0
21-06-2022, 00:42:39,    182,    0.0,   11.4,   0.00,   0.00, 1014.1,   71.7, -999.0
21-06-2022, 00:42:49,    183,    0.0,   11.4,   0.00,   0.00, 1014.1,   71.7, -999.0
21-06-2022, 00:42:59,    182,    0.0,   11.5,   0.00,   0.00, 1014.1,   71.7, -999.0
21-06-2022, 00:43:09,    182,    0.0,   11.5,   0.00,   0.00, 1014.1,   71.8, -999.0
21-06-2022, 00:43:19,    182,    0.0,   11.5,   0.00,   0.00, 1014.1,   71.7, -999.0
21-06-2022, 00:43:28,    182,    0.0,   11.5,   0.00,   0.00, 1014.1,   71.6, -999.0
21-06-2022, 00:43:39,    182,    0.0,   11.5,   0.00,   0.00, 1014.1,   71.6, -999.0
21-06-2022, 00:43:49,    182,    0.0,   11.5,   0.00,   0.00, 1014.1,   71.4, -999.0
21-06-2022, 00:43:58,    181,    0.0,   11.5,   0.00,   0.00, 1014.1,   71.4, -999.0
21-06-2022, 00:44:08,    182,    0.0,   11.4,   0.00,   0.00, 1014.1,   71.4, -999.0
21-06-2022, 00:44:19,    182,    0.0,   11.4,   0.00,   0.00, 1014.1,   71.3, -999.0
21-06-2022, 00:44:28,    181,    0.0,   11.5,   0.00,   0.00, 1014.1,   71.5, -999.0
21-06-2022, 00:44:38,    182,    0.0,   11.5,   0.00,   0.00, 1014.1,   71.5, -999.0
21-06-2022, 00:44:48,    182,    0.0,   11.4,   0.00,   0.00, 1014.1,   71.4, -999.0
21-06-2022, 00:44:58,    182,    0.0,   11.5,   0.00,   0.00, 1014.1,   71.5, -999.0
21-06-2022, 00:45:08,    182,    0.0,   11.5,   0.00,   0.00, 1014.1,   71.4, -999.0
21-06-2022, 00:45:18,    182,    0.0,   11.6,   0.00,   0.00, 1014.1,   71.4, -999.0
21-06-2022, 00:45:28,    182,    0.0,   11.6,   0.00,   0.00, 1014.1,   71.4, -999.0
21-06-2022, 00:45:38,    182,    0.0,   11.6,   0.00,   0.00, 1014.1,   71.5, -999.0
21-06-2022, 00:45:48,    181,    0.0,   11.7,   0.00,   0.00, 1014.1,   71.5, -999.0
21-06-2022, 00:45:58,    181,    0.0,   11.7,   0.00,   0.00, 1014.1,   71.2, -999.0
21-06-2022, 00:46:08,    182,    0.0,   11.6,   0.00,   0.00, 1014.1,   71.1, -999.0
21-06-2022, 00:46:18,    181,    0.0,   11.7,   0.00,   0.00, 1014.1,   70.9, -999.0
21-06-2022, 00:46:28,    181,    0.0,   11.7,   0.00,   0.00, 1014.1,   71.1, -999.0
21-06-2022, 00:46:38,    182,    0.0,   11.7,   0.00,   0.00, 1014.1,   70.9, -999.0